station,date_time,longitude_east,latitude_north,depth,sw_sal,sw_sal_result_value_qualifier,sea_water_temperature,sea_water_temperature_result_value_qualifier,sea_water_pressure,sea_water_pressure_result_value_qualifier,KD_PAR,KD_PAR_result_value_qualifier
CH4-4,2017-01-27T03:30:00Z,-79.19,54.15,1,12.95,,-0.71,,, NC,, NC
CH4-4,2017-01-27T03:40:00Z,-79.19,54.15,1,12.95,,-0.71,,, NC,, NC
CH4-4,2017-01-27T03:50:00Z,-79.19,54.15,1,12.97,,-0.71,,, NC,, NC
CH4-4,2017-01-27T04:00:00Z,-79.19,54.15,1,12.99,,-0.71,,, NC,, NC
CH4-4,2017-01-27T04:10:00Z,-79.19,54.15,1,12.89,,-0.71,,, NC,, NC
CH4-4,2017-01-27T04:20:00Z,-79.19,54.15,1,12.94,,-0.72,,, NC,, NC
CH4-4,2017-01-27T04:30:00Z,-79.19,54.15,1,12.92,,-0.72,,, NC,, NC
CH4-4,2017-01-27T04:40:00Z,-79.19,54.15,1,12.96,,-0.72,,, NC,, NC
CH4-4,2017-01-27T04:50:00Z,-79.19,54.15,1,12.91,,-0.72,,, NC,, NC
CH4-4,2017-01-27T05:00:00Z,-79.19,54.15,1,13.03,,-0.73,,, NC,, NC
CH4-4,2017-01-27T05:10:00Z,-79.19,54.15,1,12.94,,-0.73,,, NC,, NC
CH4-4,2017-01-27T05:20:00Z,-79.19,54.15,1,12.92,,-0.73,,, NC,, NC
CH4-4,2017-01-27T05:30:00Z,-79.19,54.15,1,12.94,,-0.73,,, NC,, NC
CH4-4,2017-01-27T05:40:00Z,-79.19,54.15,1,12.96,,-0.73,,, NC,, NC
CH4-4,2017-01-27T05:50:00Z,-79.19,54.15,1,13.04,,-0.73,,, NC,, NC
CH4-4,2017-01-27T06:00:00Z,-79.19,54.15,1,13.10,,-0.73,,, NC,, NC
CH4-4,2017-01-27T06:10:00Z,-79.19,54.15,1,13.11,,-0.73,,, NC,, NC
CH4-4,2017-01-27T06:20:00Z,-79.19,54.15,1,13.12,,-0.73,,, NC,, NC
CH4-4,2017-01-27T06:30:00Z,-79.19,54.15,1,13.13,,-0.73,,, NC,, NC
CH4-4,2017-01-27T06:40:00Z,-79.19,54.15,1,13.11,,-0.73,,, NC,, NC
CH4-4,2017-01-27T06:50:00Z,-79.19,54.15,1,13.10,,-0.73,,, NC,, NC
CH4-4,2017-01-27T07:00:00Z,-79.19,54.15,1,13.11,,-0.73,,, NC,, NC
CH4-4,2017-01-27T07:10:00Z,-79.19,54.15,1,13.13,,-0.73,,, NC,, NC
CH4-4,2017-01-27T07:20:00Z,-79.19,54.15,1,13.13,,-0.74,,, NC,, NC
CH4-4,2017-01-27T07:30:00Z,-79.19,54.15,1,13.13,,-0.74,,, NC,, NC
CH4-4,2017-01-27T07:40:00Z,-79.19,54.15,1,13.14,,-0.73,,, NC,, NC
CH4-4,2017-01-27T07:50:00Z,-79.19,54.15,1,13.15,,-0.73,,, NC,, NC
CH4-4,2017-01-27T08:00:00Z,-79.19,54.15,1,13.18,,-0.73,,, NC,, NC
CH4-4,2017-01-27T08:10:00Z,-79.19,54.15,1,13.23,,-0.74,,, NC,, NC
CH4-4,2017-01-27T08:20:00Z,-79.19,54.15,1,13.29,,-0.74,,, NC,, NC
CH4-4,2017-01-27T08:30:00Z,-79.19,54.15,1,13.35,,-0.74,,, NC,, NC
CH4-4,2017-01-27T08:40:00Z,-79.19,54.15,1,13.41,,-0.74,,, NC,, NC
CH4-4,2017-01-27T08:50:00Z,-79.19,54.15,1,13.47,,-0.74,,, NC,, NC
CH4-4,2017-01-27T09:00:00Z,-79.19,54.15,1,13.51,,-0.74,,, NC,, NC
CH4-4,2017-01-27T09:10:00Z,-79.19,54.15,1,13.55,,-0.74,,, NC,, NC
CH4-4,2017-01-27T09:20:00Z,-79.19,54.15,1,13.51,,-0.74,,, NC,, NC
CH4-4,2017-01-27T09:30:00Z,-79.19,54.15,1,13.32,,-0.73,,, NC,, NC
CH4-4,2017-01-27T09:40:00Z,-79.19,54.15,1,13.13,,-0.73,,, NC,, NC
CH4-4,2017-01-27T09:50:00Z,-79.19,54.15,1,12.99,,-0.73,,, NC,, NC
CH4-4,2017-01-27T10:00:00Z,-79.19,54.15,1,12.91,,-0.72,,, NC,, NC
CH4-4,2017-01-27T10:10:00Z,-79.19,54.15,1,12.85,,-0.72,,, NC,, NC
CH4-4,2017-01-27T10:20:00Z,-79.19,54.15,1,12.82,,-0.72,,, NC,, NC
CH4-4,2017-01-27T10:30:00Z,-79.19,54.15,1,12.81,,-0.72,,, NC,, NC
CH4-4,2017-01-27T10:40:00Z,-79.19,54.15,1,12.79,,-0.72,,, NC,, NC
CH4-4,2017-01-27T10:50:00Z,-79.19,54.15,1,12.70,,-0.72,,, NC,, NC
CH4-4,2017-01-27T11:00:00Z,-79.19,54.15,1,12.59,,-0.72,,, NC,, NC
CH4-4,2017-01-27T11:10:00Z,-79.19,54.15,1,12.58,,-0.71,,, NC,, NC
CH4-4,2017-01-27T11:20:00Z,-79.19,54.15,1,12.42,,-0.71,,, NC,, NC
CH4-4,2017-01-27T11:30:00Z,-79.19,54.15,1,12.18,,-0.70,,, NC,, NC
CH4-4,2017-01-27T11:40:00Z,-79.19,54.15,1,12.02,,-0.69,,, NC,, NC
CH4-4,2017-01-27T11:50:00Z,-79.19,54.15,1,11.95,,-0.69,,, NC,, NC
CH4-4,2017-01-27T12:00:00Z,-79.19,54.15,1,11.90,,-0.68,,, NC,, NC
CH4-4,2017-01-27T12:10:00Z,-79.19,54.15,1,11.86,,-0.68,,, NC,, NC
CH4-4,2017-01-27T12:20:00Z,-79.19,54.15,1,11.84,,-0.68,,, NC,, NC
CH4-4,2017-01-27T12:30:00Z,-79.19,54.15,1,11.82,,-0.67,,, NC,, NC
CH4-4,2017-01-27T12:40:00Z,-79.19,54.15,1,11.82,,-0.67,,, NC,, NC
CH4-4,2017-01-27T12:50:00Z,-79.19,54.15,1,11.79,,-0.67,,, NC,, NC
CH4-4,2017-01-27T13:00:00Z,-79.19,54.15,1,11.80,,-0.67,,, NC,, NC
CH4-4,2017-01-27T13:10:00Z,-79.19,54.15,1,11.81,,-0.67,,, NC,, NC
CH4-4,2017-01-27T13:20:00Z,-79.19,54.15,1,11.82,,-0.67,,, NC,, NC
CH4-4,2017-01-27T13:30:00Z,-79.19,54.15,1,11.81,,-0.67,,, NC,, NC
CH4-4,2017-01-27T13:40:00Z,-79.19,54.15,1,11.80,,-0.67,,, NC,, NC
CH4-4,2017-01-27T13:50:00Z,-79.19,54.15,1,11.80,,-0.67,,, NC,, NC
CH4-4,2017-01-27T14:00:00Z,-79.19,54.15,1,11.80,,-0.67,,, NC,, NC
CH4-4,2017-01-27T14:10:00Z,-79.19,54.15,1,11.80,,-0.67,,, NC,, NC
CH4-4,2017-01-27T14:20:00Z,-79.19,54.15,1,11.79,,-0.67,,, NC,, NC
CH4-4,2017-01-27T14:30:00Z,-79.19,54.15,1,11.83,,-0.67,,, NC,, NC
CH4-4,2017-01-27T14:40:00Z,-79.19,54.15,1,11.81,,-0.67,,, NC,, NC
CH4-4,2017-01-27T14:50:00Z,-79.19,54.15,1,11.81,,-0.67,,, NC,, NC
CH4-4,2017-01-27T15:00:00Z,-79.19,54.15,1,11.89,,-0.68,,, NC,, NC
CH4-4,2017-01-27T15:10:00Z,-79.19,54.15,1,11.96,,-0.68,,, NC,, NC
CH4-4,2017-01-27T15:20:00Z,-79.19,54.15,1,12.39,,-0.70,,, NC,, NC
CH4-4,2017-01-27T15:30:00Z,-79.19,54.15,1,12.57,,-0.70,,, NC,, NC
CH4-4,2017-01-27T15:40:00Z,-79.19,54.15,1,12.73,,-0.70,,, NC,, NC
CH4-4,2017-01-27T15:50:00Z,-79.19,54.15,1,12.77,,-0.70,,, NC,, NC
CH4-4,2017-01-27T16:00:00Z,-79.19,54.15,1,12.65,,-0.70,,, NC,, NC
CH4-4,2017-01-27T16:10:00Z,-79.19,54.15,1,12.65,,-0.70,,, NC,, NC
CH4-4,2017-01-27T16:20:00Z,-79.19,54.15,1,12.66,,-0.71,,, NC,, NC
CH4-4,2017-01-27T16:30:00Z,-79.19,54.15,1,12.66,,-0.71,,, NC,, NC
CH4-4,2017-01-27T16:40:00Z,-79.19,54.15,1,12.65,,-0.71,,, NC,, NC
CH4-4,2017-01-27T16:50:00Z,-79.19,54.15,1,12.65,,-0.71,,, NC,, NC
CH4-4,2017-01-27T17:00:00Z,-79.19,54.15,1,12.67,,-0.71,,, NC,, NC
CH4-4,2017-01-27T17:10:00Z,-79.19,54.15,1,12.67,,-0.71,,, NC,, NC
CH4-4,2017-01-27T17:20:00Z,-79.19,54.15,1,12.63,,-0.71,,, NC,, NC
CH4-4,2017-01-27T17:30:00Z,-79.19,54.15,1,12.74,,-0.72,,, NC,, NC
CH4-4,2017-01-27T17:40:00Z,-79.19,54.15,1,12.71,,-0.72,,, NC,, NC
CH4-4,2017-01-27T17:50:00Z,-79.19,54.15,1,12.75,,-0.72,,, NC,, NC
CH4-4,2017-01-27T18:00:00Z,-79.19,54.15,1,12.76,,-0.72,,, NC,, NC
CH4-4,2017-01-27T18:10:00Z,-79.19,54.15,1,12.75,,-0.72,,, NC,, NC
CH4-4,2017-01-27T18:20:00Z,-79.19,54.15,1,12.79,,-0.72,,, NC,, NC
CH4-4,2017-01-27T18:30:00Z,-79.19,54.15,1,12.81,,-0.72,,, NC,, NC
CH4-4,2017-01-27T18:40:00Z,-79.19,54.15,1,12.84,,-0.72,,, NC,, NC
CH4-4,2017-01-27T18:50:00Z,-79.19,54.15,1,12.85,,-0.72,,, NC,, NC
CH4-4,2017-01-27T19:00:00Z,-79.19,54.15,1,12.86,,-0.72,,, NC,, NC
CH4-4,2017-01-27T19:10:00Z,-79.19,54.15,1,12.87,,-0.72,,, NC,, NC
CH4-4,2017-01-27T19:20:00Z,-79.19,54.15,1,12.88,,-0.72,,, NC,, NC
CH4-4,2017-01-27T19:30:00Z,-79.19,54.15,1,12.90,,-0.73,,, NC,, NC
CH4-4,2017-01-27T19:40:00Z,-79.19,54.15,1,12.91,,-0.73,,, NC,, NC
CH4-4,2017-01-27T19:50:00Z,-79.19,54.15,1,12.93,,-0.72,,, NC,, NC
CH4-4,2017-01-27T20:00:00Z,-79.19,54.15,1,12.94,,-0.73,,, NC,, NC
CH4-4,2017-01-27T20:10:00Z,-79.19,54.15,1,12.96,,-0.73,,, NC,, NC
CH4-4,2017-01-27T20:20:00Z,-79.19,54.15,1,13.03,,-0.73,,, NC,, NC
CH4-4,2017-01-27T20:30:00Z,-79.19,54.15,1,13.07,,-0.73,,, NC,, NC
CH4-4,2017-01-27T20:40:00Z,-79.19,54.15,1,13.13,,-0.73,,, NC,, NC
CH4-4,2017-01-27T20:50:00Z,-79.19,54.15,1,13.20,,-0.73,,, NC,, NC
CH4-4,2017-01-27T21:00:00Z,-79.19,54.15,1,13.26,,-0.73,,, NC,, NC
CH4-4,2017-01-27T21:10:00Z,-79.19,54.15,1,13.37,,-0.73,,, NC,, NC
CH4-4,2017-01-27T21:20:00Z,-79.19,54.15,1,13.41,,-0.73,,, NC,, NC
CH4-4,2017-01-27T21:30:00Z,-79.19,54.15,1,13.44,,-0.73,,, NC,, NC
CH4-4,2017-01-27T21:40:00Z,-79.19,54.15,1,13.44,,-0.73,,, NC,, NC
CH4-4,2017-01-27T21:50:00Z,-79.19,54.15,1,13.42,,-0.72,,, NC,, NC
CH4-4,2017-01-27T22:00:00Z,-79.19,54.15,1,13.20,,-0.72,,, NC,, NC
CH4-4,2017-01-27T22:10:00Z,-79.19,54.15,1,13.01,,-0.72,,, NC,, NC
CH4-4,2017-01-27T22:20:00Z,-79.19,54.15,1,12.84,,-0.72,,, NC,, NC
CH4-4,2017-01-27T22:30:00Z,-79.19,54.15,1,12.74,,-0.72,,, NC,, NC
CH4-4,2017-01-27T22:40:00Z,-79.19,54.15,1,12.68,,-0.72,,, NC,, NC
CH4-4,2017-01-27T22:50:00Z,-79.19,54.15,1,12.64,,-0.72,,, NC,, NC
CH4-4,2017-01-27T23:00:00Z,-79.19,54.15,1,12.61,,-0.71,,, NC,, NC
CH4-4,2017-01-27T23:10:00Z,-79.19,54.15,1,12.57,,-0.71,,, NC,, NC
CH4-4,2017-01-27T23:20:00Z,-79.19,54.15,1,12.48,,-0.71,,, NC,, NC
CH4-4,2017-01-27T23:30:00Z,-79.19,54.15,1,12.44,,-0.71,,, NC,, NC
CH4-4,2017-01-27T23:40:00Z,-79.19,54.15,1,12.38,,-0.71,,, NC,, NC
CH4-4,2017-01-27T23:50:00Z,-79.19,54.15,1,12.18,,-0.70,,, NC,, NC
CH4-4,2017-01-28T00:00:00Z,-79.19,54.15,1,11.93,,-0.69,,, NC,, NC
CH4-4,2017-01-28T00:10:00Z,-79.19,54.15,1,11.87,,-0.68,,, NC,, NC
CH4-4,2017-01-28T00:20:00Z,-79.19,54.15,1,11.81,,-0.68,,, NC,, NC
CH4-4,2017-01-28T00:30:00Z,-79.19,54.15,1,11.77,,-0.68,,, NC,, NC
CH4-4,2017-01-28T00:40:00Z,-79.19,54.15,1,11.74,,-0.67,,, NC,, NC
CH4-4,2017-01-28T00:50:00Z,-79.19,54.15,1,11.72,,-0.67,,, NC,, NC
CH4-4,2017-01-28T01:00:00Z,-79.19,54.15,1,11.71,,-0.67,,, NC,, NC
CH4-4,2017-01-28T01:10:00Z,-79.19,54.15,1,11.70,,-0.67,,, NC,, NC
CH4-4,2017-01-28T01:20:00Z,-79.19,54.15,1,11.67,,-0.67,,, NC,, NC
CH4-4,2017-01-28T01:30:00Z,-79.19,54.15,1,11.67,,-0.67,,, NC,, NC
CH4-4,2017-01-28T01:40:00Z,-79.19,54.15,1,11.69,,-0.67,,, NC,, NC
CH4-4,2017-01-28T01:50:00Z,-79.19,54.15,1,11.71,,-0.67,,, NC,, NC
CH4-4,2017-01-28T02:00:00Z,-79.19,54.15,1,11.70,,-0.67,,, NC,, NC
CH4-4,2017-01-28T02:10:00Z,-79.19,54.15,1,11.69,,-0.67,,, NC,, NC
CH4-4,2017-01-28T02:20:00Z,-79.19,54.15,1,11.69,,-0.67,,, NC,, NC
CH4-4,2017-01-28T02:30:00Z,-79.19,54.15,1,11.68,,-0.66,,, NC,, NC
CH4-4,2017-01-28T02:40:00Z,-79.19,54.15,1,11.68,,-0.67,,, NC,, NC
CH4-4,2017-01-28T02:50:00Z,-79.19,54.15,1,11.70,,-0.67,,, NC,, NC
CH4-4,2017-01-28T03:00:00Z,-79.19,54.15,1,11.72,,-0.67,,, NC,, NC
CH4-4,2017-01-28T03:10:00Z,-79.19,54.15,1,11.71,,-0.67,,, NC,, NC
CH4-4,2017-01-28T03:20:00Z,-79.19,54.15,1,11.75,,-0.67,,, NC,, NC
CH4-4,2017-01-28T03:30:00Z,-79.19,54.15,1,11.84,,-0.68,,, NC,, NC
CH4-4,2017-01-28T03:40:00Z,-79.19,54.15,1,12.34,,-0.69,,, NC,, NC
CH4-4,2017-01-28T03:50:00Z,-79.19,54.15,1,12.47,,-0.70,,, NC,, NC
CH4-4,2017-01-28T04:00:00Z,-79.19,54.15,1,12.53,,-0.70,,, NC,, NC
CH4-4,2017-01-28T04:10:00Z,-79.19,54.15,1,12.57,,-0.70,,, NC,, NC
CH4-4,2017-01-28T04:20:00Z,-79.19,54.15,1,12.55,,-0.70,,, NC,, NC
CH4-4,2017-01-28T04:30:00Z,-79.19,54.15,1,12.63,,-0.70,,, NC,, NC
CH4-4,2017-01-28T04:40:00Z,-79.19,54.15,1,12.57,,-0.70,,, NC,, NC
CH4-4,2017-01-28T04:50:00Z,-79.19,54.15,1,12.60,,-0.70,,, NC,, NC
CH4-4,2017-01-28T05:00:00Z,-79.19,54.15,1,12.59,,-0.71,,, NC,, NC
CH4-4,2017-01-28T05:10:00Z,-79.19,54.15,1,12.55,,-0.71,,, NC,, NC
CH4-4,2017-01-28T05:20:00Z,-79.19,54.15,1,12.55,,-0.71,,, NC,, NC
CH4-4,2017-01-28T05:30:00Z,-79.19,54.15,1,12.57,,-0.71,,, NC,, NC
CH4-4,2017-01-28T05:40:00Z,-79.19,54.15,1,12.49,,-0.71,,, NC,, NC
CH4-4,2017-01-28T05:50:00Z,-79.19,54.15,1,12.56,,-0.71,,, NC,, NC
CH4-4,2017-01-28T06:00:00Z,-79.19,54.15,1,12.56,,-0.71,,, NC,, NC
CH4-4,2017-01-28T06:10:00Z,-79.19,54.15,1,12.56,,-0.71,,, NC,, NC
CH4-4,2017-01-28T06:20:00Z,-79.19,54.15,1,12.56,,-0.71,,, NC,, NC
CH4-4,2017-01-28T06:30:00Z,-79.19,54.15,1,12.58,,-0.71,,, NC,, NC
CH4-4,2017-01-28T06:40:00Z,-79.19,54.15,1,12.61,,-0.71,,, NC,, NC
CH4-4,2017-01-28T06:50:00Z,-79.19,54.15,1,12.64,,-0.71,,, NC,, NC
CH4-4,2017-01-28T07:00:00Z,-79.19,54.15,1,12.67,,-0.71,,, NC,, NC
CH4-4,2017-01-28T07:10:00Z,-79.19,54.15,1,12.68,,-0.71,,, NC,, NC
CH4-4,2017-01-28T07:20:00Z,-79.19,54.15,1,12.70,,-0.71,,, NC,, NC
CH4-4,2017-01-28T07:30:00Z,-79.19,54.15,1,12.71,,-0.71,,, NC,, NC
CH4-4,2017-01-28T07:40:00Z,-79.19,54.15,1,12.73,,-0.71,,, NC,, NC
CH4-4,2017-01-28T07:50:00Z,-79.19,54.15,1,12.74,,-0.71,,, NC,, NC
CH4-4,2017-01-28T08:00:00Z,-79.19,54.15,1,12.76,,-0.72,,, NC,, NC
CH4-4,2017-01-28T08:10:00Z,-79.19,54.15,1,12.77,,-0.72,,, NC,, NC
CH4-4,2017-01-28T08:20:00Z,-79.19,54.15,1,12.79,,-0.72,,, NC,, NC
CH4-4,2017-01-28T08:30:00Z,-79.19,54.15,1,12.80,,-0.72,,, NC,, NC
CH4-4,2017-01-28T08:40:00Z,-79.19,54.15,1,12.82,,-0.72,,, NC,, NC
CH4-4,2017-01-28T08:50:00Z,-79.19,54.15,1,12.84,,-0.72,,, NC,, NC
CH4-4,2017-01-28T09:00:00Z,-79.19,54.15,1,12.87,,-0.72,,, NC,, NC
CH4-4,2017-01-28T09:10:00Z,-79.19,54.15,1,12.94,,-0.72,,, NC,, NC
CH4-4,2017-01-28T09:20:00Z,-79.19,54.15,1,12.98,,-0.72,,, NC,, NC
CH4-4,2017-01-28T09:30:00Z,-79.19,54.15,1,13.00,,-0.72,,, NC,, NC
CH4-4,2017-01-28T09:40:00Z,-79.19,54.15,1,13.00,,-0.72,,, NC,, NC
CH4-4,2017-01-28T09:50:00Z,-79.19,54.15,1,12.92,,-0.72,,, NC,, NC
CH4-4,2017-01-28T10:00:00Z,-79.19,54.15,1,12.79,,-0.71,,, NC,, NC
CH4-4,2017-01-28T10:10:00Z,-79.19,54.15,1,12.65,,-0.71,,, NC,, NC
CH4-4,2017-01-28T10:20:00Z,-79.19,54.15,1,12.57,,-0.71,,, NC,, NC
CH4-4,2017-01-28T10:30:00Z,-79.19,54.15,1,12.49,,-0.71,,, NC,, NC
CH4-4,2017-01-28T10:40:00Z,-79.19,54.15,1,12.46,,-0.71,,, NC,, NC
CH4-4,2017-01-28T10:50:00Z,-79.19,54.15,1,12.44,,-0.71,,, NC,, NC
CH4-4,2017-01-28T11:00:00Z,-79.19,54.15,1,12.42,,-0.70,,, NC,, NC
CH4-4,2017-01-28T11:10:00Z,-79.19,54.15,1,12.41,,-0.70,,, NC,, NC
CH4-4,2017-01-28T11:20:00Z,-79.19,54.15,1,12.35,,-0.70,,, NC,, NC
CH4-4,2017-01-28T11:30:00Z,-79.19,54.15,1,12.29,,-0.70,,, NC,, NC
CH4-4,2017-01-28T11:40:00Z,-79.19,54.15,1,12.22,,-0.70,,, NC,, NC
CH4-4,2017-01-28T11:50:00Z,-79.19,54.15,1,12.01,,-0.69,,, NC,, NC
CH4-4,2017-01-28T12:00:00Z,-79.19,54.15,1,11.82,,-0.68,,, NC,, NC
CH4-4,2017-01-28T12:10:00Z,-79.19,54.15,1,11.75,,-0.68,,, NC,, NC
CH4-4,2017-01-28T12:20:00Z,-79.19,54.15,1,11.70,,-0.67,,, NC,, NC
CH4-4,2017-01-28T12:30:00Z,-79.19,54.15,1,11.66,,-0.67,,, NC,, NC
CH4-4,2017-01-28T12:40:00Z,-79.19,54.15,1,11.65,,-0.67,,, NC,, NC
CH4-4,2017-01-28T12:50:00Z,-79.19,54.15,1,11.65,,-0.67,,, NC,, NC
CH4-4,2017-01-28T13:00:00Z,-79.19,54.15,1,11.62,,-0.66,,, NC,, NC
CH4-4,2017-01-28T13:10:00Z,-79.19,54.15,1,11.61,,-0.66,,, NC,, NC
CH4-4,2017-01-28T13:20:00Z,-79.19,54.15,1,11.62,,-0.66,,, NC,, NC
CH4-4,2017-01-28T13:30:00Z,-79.19,54.15,1,11.60,,-0.66,,, NC,, NC
CH4-4,2017-01-28T13:40:00Z,-79.19,54.15,1,11.60,,-0.66,,, NC,, NC
CH4-4,2017-01-28T13:50:00Z,-79.19,54.15,1,11.59,,-0.66,,, NC,, NC
CH4-4,2017-01-28T14:00:00Z,-79.19,54.15,1,11.58,,-0.66,,, NC,, NC
CH4-4,2017-01-28T14:10:00Z,-79.19,54.15,1,11.58,,-0.66,,, NC,, NC
CH4-4,2017-01-28T14:20:00Z,-79.19,54.15,1,11.58,,-0.66,,, NC,, NC
CH4-4,2017-01-28T14:30:00Z,-79.19,54.15,1,11.58,,-0.66,,, NC,, NC
CH4-4,2017-01-28T14:40:00Z,-79.19,54.15,1,11.58,,-0.66,,, NC,, NC
CH4-4,2017-01-28T14:50:00Z,-79.19,54.15,1,11.60,,-0.66,,, NC,, NC
CH4-4,2017-01-28T15:00:00Z,-79.19,54.15,1,11.62,,-0.66,,, NC,, NC
CH4-4,2017-01-28T15:10:00Z,-79.19,54.15,1,11.61,,-0.66,,, NC,, NC
CH4-4,2017-01-28T15:20:00Z,-79.19,54.15,1,11.60,,-0.66,,, NC,, NC
CH4-4,2017-01-28T15:30:00Z,-79.19,54.15,1,11.61,,-0.66,,, NC,, NC
CH4-4,2017-01-28T15:40:00Z,-79.19,54.15,1,11.68,,-0.67,,, NC,, NC
CH4-4,2017-01-28T15:50:00Z,-79.19,54.15,1,11.81,,-0.67,,, NC,, NC
CH4-4,2017-01-28T16:00:00Z,-79.19,54.15,1,12.12,,-0.68,,, NC,, NC
CH4-4,2017-01-28T16:10:00Z,-79.19,54.15,1,12.26,,-0.69,,, NC,, NC
CH4-4,2017-01-28T16:20:00Z,-79.19,54.15,1,12.33,,-0.69,,, NC,, NC
CH4-4,2017-01-28T16:30:00Z,-79.19,54.15,1,12.33,,-0.69,,, NC,, NC
CH4-4,2017-01-28T16:40:00Z,-79.19,54.15,1,12.30,,-0.69,,, NC,, NC
CH4-4,2017-01-28T16:50:00Z,-79.19,54.15,1,12.27,,-0.69,,, NC,, NC
CH4-4,2017-01-28T17:00:00Z,-79.19,54.15,1,12.21,,-0.69,,, NC,, NC
CH4-4,2017-01-28T17:10:00Z,-79.19,54.15,1,12.22,,-0.69,,, NC,, NC
CH4-4,2017-01-28T17:20:00Z,-79.19,54.15,1,12.18,,-0.69,,, NC,, NC
CH4-4,2017-01-28T17:30:00Z,-79.19,54.15,1,12.18,,-0.69,,, NC,, NC
CH4-4,2017-01-28T17:40:00Z,-79.19,54.15,1,12.24,,-0.70,,, NC,, NC
CH4-4,2017-01-28T17:50:00Z,-79.19,54.15,1,12.26,,-0.70,,, NC,, NC
CH4-4,2017-01-28T18:00:00Z,-79.19,54.15,1,12.36,,-0.70,,, NC,, NC
CH4-4,2017-01-28T18:10:00Z,-79.19,54.15,1,12.34,,-0.70,,, NC,, NC
CH4-4,2017-01-28T18:20:00Z,-79.19,54.15,1,12.35,,-0.70,,, NC,, NC
CH4-4,2017-01-28T18:30:00Z,-79.19,54.15,1,12.45,,-0.70,,, NC,, NC
CH4-4,2017-01-28T18:40:00Z,-79.19,54.15,1,12.43,,-0.70,,, NC,, NC
CH4-4,2017-01-28T18:50:00Z,-79.19,54.15,1,12.43,,-0.71,,, NC,, NC
CH4-4,2017-01-28T19:00:00Z,-79.19,54.15,1,12.49,,-0.71,,, NC,, NC
CH4-4,2017-01-28T19:10:00Z,-79.19,54.15,1,12.50,,-0.71,,, NC,, NC
CH4-4,2017-01-28T19:20:00Z,-79.19,54.15,1,12.50,,-0.71,,, NC,, NC
CH4-4,2017-01-28T19:30:00Z,-79.19,54.15,1,12.53,,-0.71,,, NC,, NC
CH4-4,2017-01-28T19:40:00Z,-79.19,54.15,1,12.52,,-0.71,,, NC,, NC
CH4-4,2017-01-28T19:50:00Z,-79.19,54.15,1,12.53,,-0.71,,, NC,, NC
CH4-4,2017-01-28T20:00:00Z,-79.19,54.15,1,12.55,,-0.71,,, NC,, NC
CH4-4,2017-01-28T20:10:00Z,-79.19,54.15,1,12.58,,-0.71,,, NC,, NC
CH4-4,2017-01-28T20:20:00Z,-79.19,54.15,1,12.63,,-0.71,,, NC,, NC
CH4-4,2017-01-28T20:30:00Z,-79.19,54.15,1,12.64,,-0.71,,, NC,, NC
CH4-4,2017-01-28T20:40:00Z,-79.19,54.15,1,12.65,,-0.71,,, NC,, NC
CH4-4,2017-01-28T20:50:00Z,-79.19,54.15,1,12.67,,-0.71,,, NC,, NC
CH4-4,2017-01-28T21:00:00Z,-79.19,54.15,1,12.68,,-0.71,,, NC,, NC
CH4-4,2017-01-28T21:10:00Z,-79.19,54.15,1,12.70,,-0.71,,, NC,, NC
CH4-4,2017-01-28T21:20:00Z,-79.19,54.15,1,12.74,,-0.71,,, NC,, NC
CH4-4,2017-01-28T21:30:00Z,-79.19,54.15,1,12.78,,-0.71,,, NC,, NC
CH4-4,2017-01-28T21:40:00Z,-79.19,54.15,1,12.80,,-0.71,,, NC,, NC
CH4-4,2017-01-28T21:50:00Z,-79.19,54.15,1,12.81,,-0.71,,, NC,, NC
CH4-4,2017-01-28T22:00:00Z,-79.19,54.15,1,12.82,,-0.71,,, NC,, NC
CH4-4,2017-01-28T22:10:00Z,-79.19,54.15,1,12.82,,-0.71,,, NC,, NC
CH4-4,2017-01-28T22:20:00Z,-79.19,54.15,1,12.82,,-0.71,,, NC,, NC
CH4-4,2017-01-28T22:30:00Z,-79.19,54.15,1,12.77,,-0.71,,, NC,, NC
CH4-4,2017-01-28T22:40:00Z,-79.19,54.15,1,12.67,,-0.70,,, NC,, NC
CH4-4,2017-01-28T22:50:00Z,-79.19,54.15,1,12.54,,-0.70,,, NC,, NC
CH4-4,2017-01-28T23:00:00Z,-79.19,54.15,1,12.45,,-0.70,,, NC,, NC
CH4-4,2017-01-28T23:10:00Z,-79.19,54.15,1,12.39,,-0.70,,, NC,, NC
CH4-4,2017-01-28T23:20:00Z,-79.19,54.15,1,12.34,,-0.70,,, NC,, NC
CH4-4,2017-01-28T23:30:00Z,-79.19,54.15,1,12.32,,-0.70,,, NC,, NC
CH4-4,2017-01-28T23:40:00Z,-79.19,54.15,1,12.30,,-0.70,,, NC,, NC
CH4-4,2017-01-28T23:50:00Z,-79.19,54.15,1,12.23,,-0.70,,, NC,, NC
CH4-4,2017-01-29T00:00:00Z,-79.19,54.15,1,12.17,,-0.69,,, NC,, NC
CH4-4,2017-01-29T00:10:00Z,-79.19,54.15,1,12.15,,-0.69,,, NC,, NC
CH4-4,2017-01-29T00:20:00Z,-79.19,54.15,1,12.04,,-0.69,,, NC,, NC
CH4-4,2017-01-29T00:30:00Z,-79.19,54.15,1,11.83,,-0.68,,, NC,, NC
CH4-4,2017-01-29T00:40:00Z,-79.19,54.15,1,11.69,,-0.68,,, NC,, NC
CH4-4,2017-01-29T00:50:00Z,-79.19,54.15,1,11.64,,-0.67,,, NC,, NC
CH4-4,2017-01-29T01:00:00Z,-79.19,54.15,1,11.60,,-0.67,,, NC,, NC
CH4-4,2017-01-29T01:10:00Z,-79.19,54.15,1,11.58,,-0.67,,, NC,, NC
CH4-4,2017-01-29T01:20:00Z,-79.19,54.15,1,11.56,,-0.67,,, NC,, NC
CH4-4,2017-01-29T01:30:00Z,-79.19,54.15,1,11.55,,-0.66,,, NC,, NC
CH4-4,2017-01-29T01:40:00Z,-79.19,54.15,1,11.55,,-0.66,,, NC,, NC
CH4-4,2017-01-29T01:50:00Z,-79.19,54.15,1,11.52,,-0.66,,, NC,, NC
CH4-4,2017-01-29T02:00:00Z,-79.19,54.15,1,11.54,,-0.66,,, NC,, NC
CH4-4,2017-01-29T02:10:00Z,-79.19,54.15,1,11.55,,-0.66,,, NC,, NC
CH4-4,2017-01-29T02:20:00Z,-79.19,54.15,1,11.54,,-0.66,,, NC,, NC
CH4-4,2017-01-29T02:30:00Z,-79.19,54.15,1,11.54,,-0.66,,, NC,, NC
CH4-4,2017-01-29T02:40:00Z,-79.19,54.15,1,11.54,,-0.66,,, NC,, NC
CH4-4,2017-01-29T02:50:00Z,-79.19,54.15,1,11.53,,-0.66,,, NC,, NC
CH4-4,2017-01-29T03:00:00Z,-79.19,54.15,1,11.53,,-0.66,,, NC,, NC
CH4-4,2017-01-29T03:10:00Z,-79.19,54.15,1,11.53,,-0.66,,, NC,, NC
CH4-4,2017-01-29T03:20:00Z,-79.19,54.15,1,11.52,,-0.66,,, NC,, NC
CH4-4,2017-01-29T03:30:00Z,-79.19,54.15,1,11.53,,-0.66,,, NC,, NC
CH4-4,2017-01-29T03:40:00Z,-79.19,54.15,1,11.55,,-0.66,,, NC,, NC
CH4-4,2017-01-29T03:50:00Z,-79.19,54.15,1,11.54,,-0.66,,, NC,, NC
CH4-4,2017-01-29T04:00:00Z,-79.19,54.15,1,11.54,,-0.66,,, NC,, NC
CH4-4,2017-01-29T04:10:00Z,-79.19,54.15,1,11.56,,-0.66,,, NC,, NC
CH4-4,2017-01-29T04:20:00Z,-79.19,54.15,1,11.96,,-0.67,,, NC,, NC
CH4-4,2017-01-29T04:30:00Z,-79.19,54.15,1,11.99,,-0.68,,, NC,, NC
CH4-4,2017-01-29T04:40:00Z,-79.19,54.15,1,12.06,,-0.68,,, NC,, NC
CH4-4,2017-01-29T04:50:00Z,-79.19,54.15,1,11.83,,-0.68,,, NC,, NC
CH4-4,2017-01-29T05:00:00Z,-79.19,54.15,1,12.25,,-0.68,,, NC,, NC
CH4-4,2017-01-29T05:10:00Z,-79.19,54.15,1,12.22,,-0.68,,, NC,, NC
CH4-4,2017-01-29T05:20:00Z,-79.19,54.15,1,12.19,,-0.68,,, NC,, NC
CH4-4,2017-01-29T05:30:00Z,-79.19,54.15,1,12.17,,-0.69,,, NC,, NC
CH4-4,2017-01-29T05:40:00Z,-79.19,54.15,1,12.16,,-0.69,,, NC,, NC
CH4-4,2017-01-29T05:50:00Z,-79.19,54.15,1,12.11,,-0.69,,, NC,, NC
CH4-4,2017-01-29T06:00:00Z,-79.19,54.15,1,12.18,,-0.69,,, NC,, NC
CH4-4,2017-01-29T06:10:00Z,-79.19,54.15,1,12.18,,-0.69,,, NC,, NC
CH4-4,2017-01-29T06:20:00Z,-79.19,54.15,1,12.18,,-0.69,,, NC,, NC
CH4-4,2017-01-29T06:30:00Z,-79.19,54.15,1,12.23,,-0.69,,, NC,, NC
CH4-4,2017-01-29T06:40:00Z,-79.19,54.15,1,12.23,,-0.69,,, NC,, NC
CH4-4,2017-01-29T06:50:00Z,-79.19,54.15,1,12.23,,-0.69,,, NC,, NC
CH4-4,2017-01-29T07:00:00Z,-79.19,54.15,1,12.26,,-0.69,,, NC,, NC
CH4-4,2017-01-29T07:10:00Z,-79.19,54.15,1,12.30,,-0.69,,, NC,, NC
CH4-4,2017-01-29T07:20:00Z,-79.19,54.15,1,12.31,,-0.69,,, NC,, NC
CH4-4,2017-01-29T07:30:00Z,-79.19,54.15,1,12.34,,-0.69,,, NC,, NC
CH4-4,2017-01-29T07:40:00Z,-79.19,54.15,1,12.34,,-0.69,,, NC,, NC
CH4-4,2017-01-29T07:50:00Z,-79.19,54.15,1,12.36,,-0.70,,, NC,, NC
CH4-4,2017-01-29T08:00:00Z,-79.19,54.15,1,12.37,,-0.70,,, NC,, NC
CH4-4,2017-01-29T08:10:00Z,-79.19,54.15,1,12.39,,-0.70,,, NC,, NC
CH4-4,2017-01-29T08:20:00Z,-79.19,54.15,1,12.42,,-0.70,,, NC,, NC
CH4-4,2017-01-29T08:30:00Z,-79.19,54.15,1,12.43,,-0.70,,, NC,, NC
CH4-4,2017-01-29T08:40:00Z,-79.19,54.15,1,12.45,,-0.70,,, NC,, NC
CH4-4,2017-01-29T08:50:00Z,-79.19,54.15,1,12.47,,-0.70,,, NC,, NC
CH4-4,2017-01-29T09:00:00Z,-79.19,54.15,1,12.49,,-0.70,,, NC,, NC
CH4-4,2017-01-29T09:10:00Z,-79.19,54.15,1,12.50,,-0.70,,, NC,, NC
CH4-4,2017-01-29T09:20:00Z,-79.19,54.15,1,12.51,,-0.70,,, NC,, NC
CH4-4,2017-01-29T09:30:00Z,-79.19,54.15,1,12.53,,-0.70,,, NC,, NC
CH4-4,2017-01-29T09:40:00Z,-79.19,54.15,1,12.55,,-0.70,,, NC,, NC
CH4-4,2017-01-29T09:50:00Z,-79.19,54.15,1,12.56,,-0.70,,, NC,, NC
CH4-4,2017-01-29T10:00:00Z,-79.19,54.15,1,12.58,,-0.70,,, NC,, NC
CH4-4,2017-01-29T10:10:00Z,-79.19,54.15,1,12.60,,-0.70,,, NC,, NC
CH4-4,2017-01-29T10:20:00Z,-79.19,54.15,1,12.58,,-0.70,,, NC,, NC
CH4-4,2017-01-29T10:30:00Z,-79.19,54.15,1,12.56,,-0.70,,, NC,, NC
CH4-4,2017-01-29T10:40:00Z,-79.19,54.15,1,12.48,,-0.69,,, NC,, NC
CH4-4,2017-01-29T10:50:00Z,-79.19,54.15,1,12.39,,-0.69,,, NC,, NC
CH4-4,2017-01-29T11:00:00Z,-79.19,54.15,1,12.29,,-0.69,,, NC,, NC
CH4-4,2017-01-29T11:10:00Z,-79.19,54.15,1,12.23,,-0.69,,, NC,, NC
CH4-4,2017-01-29T11:20:00Z,-79.19,54.15,1,12.19,,-0.69,,, NC,, NC
CH4-4,2017-01-29T11:30:00Z,-79.19,54.15,1,12.16,,-0.69,,, NC,, NC
CH4-4,2017-01-29T11:40:00Z,-79.19,54.15,1,12.14,,-0.69,,, NC,, NC
CH4-4,2017-01-29T11:50:00Z,-79.19,54.15,1,12.12,,-0.69,,, NC,, NC
CH4-4,2017-01-29T12:00:00Z,-79.19,54.15,1,12.08,,-0.69,,, NC,, NC
CH4-4,2017-01-29T12:10:00Z,-79.19,54.15,1,12.05,,-0.69,,, NC,, NC
CH4-4,2017-01-29T12:20:00Z,-79.19,54.15,1,12.02,,-0.69,,, NC,, NC
CH4-4,2017-01-29T12:30:00Z,-79.19,54.15,1,11.89,,-0.68,,, NC,, NC
CH4-4,2017-01-29T12:40:00Z,-79.19,54.15,1,11.66,,-0.68,,, NC,, NC
CH4-4,2017-01-29T12:50:00Z,-79.19,54.15,1,11.58,,-0.67,,, NC,, NC
CH4-4,2017-01-29T13:00:00Z,-79.19,54.15,1,11.54,,-0.67,,, NC,, NC
CH4-4,2017-01-29T13:10:00Z,-79.19,54.15,1,11.52,,-0.66,,, NC,, NC
CH4-4,2017-01-29T13:20:00Z,-79.19,54.15,1,11.52,,-0.66,,, NC,, NC
CH4-4,2017-01-29T13:30:00Z,-79.19,54.15,1,11.51,,-0.66,,, NC,, NC
CH4-4,2017-01-29T13:40:00Z,-79.19,54.15,1,11.52,,-0.66,,, NC,, NC
CH4-4,2017-01-29T13:50:00Z,-79.19,54.15,1,11.53,,-0.66,,, NC,, NC
CH4-4,2017-01-29T14:00:00Z,-79.19,54.15,1,11.54,,-0.66,,, NC,, NC
CH4-4,2017-01-29T14:10:00Z,-79.19,54.15,1,11.55,,-0.66,,, NC,, NC
CH4-4,2017-01-29T14:20:00Z,-79.19,54.15,1,11.55,,-0.66,,, NC,, NC
CH4-4,2017-01-29T14:30:00Z,-79.19,54.15,1,11.54,,-0.66,,, NC,, NC
CH4-4,2017-01-29T14:40:00Z,-79.19,54.15,1,11.54,,-0.66,,, NC,, NC
CH4-4,2017-01-29T14:50:00Z,-79.19,54.15,1,11.53,,-0.66,,, NC,, NC
CH4-4,2017-01-29T15:00:00Z,-79.19,54.15,1,11.53,,-0.66,,, NC,, NC
CH4-4,2017-01-29T15:10:00Z,-79.19,54.15,1,11.53,,-0.66,,, NC,, NC